Weather History for KMLT - January, 2014

Change the Weather History Date:

Thursday, January 23, 2014

  Actual Average Record
Temperature  
Mean Temperature 4 °F 13 °F  
Max Temperature 12 °F 23 °F 49 °F (1957)
Min Temperature -5 °F 3 °F -27 °F (1961)
Degree Days  
Heating Degree Days 61 52  
Month to date heating degree days 1090 1170  
Since 1 July heating degree days 4246 4335  
Cooling Degree Days 0 0  
Month to date cooling degree days 0 0  
Year to date cooling degree days 0 0  
Moisture  
Dew Point -9 °F    
Average Humidity 58    
Maximum Humidity 69    
Minimum Humidity 46    
Precipitation  
Precipitation 0.00 in 0.09 in 1.90 in (1935)
Month to date precipitation 3.25 2.26  
Year to date precipitation 3.25 2.26  
Sea Level Pressure  
Sea Level Pressure 29.92 in    
Wind  
Wind Speed 11 mph (WNW)    
Max Wind Speed 16 mph    
Max Gust Speed 27 mph    
Visibility 10 miles    
Events      
T = Trace of Precipitation, MM = Missing Value Source: NWS Daily Summary

Daily Weather History Graph

Daily Weather History Graph

Search for Another Location

Airport or City:

Trip Planner

Search our weather history database for the weather conditions in past years. The results will help you decide how hot, cold, wet, or windy it might be!

Date:

Astronomy

Jan. 23, 2014 Rise Set
Actual Time 7:05 AM EST 4:28 PM EST
Civil Twilight 6:33 AM EST 5:00 PM EST
Nautical Twilight 5:56 AM EST 5:36 PM EST
Astronomical Twilight 5:21 AM EST 6:12 PM EST
Moon No Moon Rise 10:15 AM EST (1/23)
Length of Visible Light 10h 27m
Length of Day
9h 22m
Waning Gibbous, 55% of the Moon is Illuminated
Jan 23
Waning Gibbous
Jan 24
Last Quarter
Jan 30
New
Feb 6
First Quarter
Feb 14
Full

Hourly Weather History & Observations

Time (EST) Temp. Windchill Dew Point Humidity Pressure Visibility Wind Dir Wind Speed Gust Speed Precip Events Conditions
12:53 AM -2.0 °F -16.6 °F -11.0 °F 66% 29.83 in 10.0 mi WNW 8.1 mph - N/A   Clear
1:53 AM -2.9 °F -18.8 °F -11.9 °F 65% 29.84 in 10.0 mi WNW 9.2 mph - N/A   Clear
2:53 AM -4.0 °F -19.0 °F -13.0 °F 65% 29.85 in 10.0 mi WNW 8.1 mph - N/A   Clear
3:53 AM -5.1 °F -25.1 °F -14.1 °F 65% 29.86 in 10.0 mi WNW 13.8 mph 21.9 mph N/A   Clear
4:53 AM -4.0 °F -21.2 °F -14.1 °F 62% 29.85 in 10.0 mi NW 10.4 mph - N/A   Clear
5:53 AM -4.0 °F -23.0 °F -14.1 °F 62% 29.87 in 10.0 mi WNW 12.7 mph 18.4 mph N/A   Clear
6:53 AM -4.0 °F -24.5 °F -14.1 °F 62% 29.88 in 10.0 mi NW 15.0 mph 21.9 mph N/A   Clear
7:53 AM -4.0 °F -20.2 °F -14.1 °F 62% 29.91 in 10.0 mi WNW 9.2 mph - N/A   Clear
8:53 AM -0.9 °F -16.4 °F -11.9 °F 60% 29.92 in 10.0 mi WNW 9.2 mph 16.1 mph N/A   Clear
9:53 AM 1.9 °F -13.8 °F -9.9 °F 58% 29.94 in 10.0 mi WNW 10.4 mph - N/A   Clear
10:53 AM 5.0 °F -11.6 °F -8.0 °F 55% 29.92 in 10.0 mi WNW 12.7 mph 18.4 mph N/A   Clear
11:53 AM 8.1 °F -6.2 °F -7.1 °F 50% 29.90 in 10.0 mi WNW 10.4 mph 20.7 mph N/A   Clear
12:53 PM 10.9 °F -1.8 °F -5.1 °F 49% 29.89 in 10.0 mi West 9.2 mph 18.4 mph N/A   Clear
1:53 PM 10.9 °F -3.4 °F -5.1 °F 49% 29.88 in 10.0 mi West 11.5 mph 18.4 mph N/A   Clear
2:53 PM 12.0 °F 0.5 °F -5.1 °F 46% 29.90 in 10.0 mi West 8.1 mph - N/A   Clear
3:53 PM 10.9 °F -0.8 °F -5.1 °F 49% 29.92 in 10.0 mi WNW 8.1 mph 17.3 mph N/A   Clear
4:53 PM 10.0 °F -2.9 °F -5.1 °F 51% 29.94 in 10.0 mi WNW 9.2 mph - N/A   Clear
5:53 PM 8.1 °F -7.7 °F -5.1 °F 55% 29.96 in 10.0 mi WNW 12.7 mph 24.2 mph N/A   Clear
6:53 PM 7.0 °F -6.6 °F -6.0 °F 55% 29.99 in 10.0 mi WNW 9.2 mph 18.4 mph N/A   Clear
7:53 PM 5.0 °F -10.8 °F -6.0 °F 61% 30.00 in 10.0 mi WNW 11.5 mph 20.7 mph N/A   Clear
8:53 PM 3.9 °F -12.2 °F -7.1 °F 60% 30.01 in 10.0 mi West 11.5 mph 20.7 mph N/A   Clear
9:53 PM 1.9 °F -16.9 °F -8.0 °F 63% 30.02 in 10.0 mi WNW 15.0 mph 24.2 mph N/A   Clear
10:53 PM 1.0 °F -14.0 °F -9.0 °F 63% 30.04 in 10.0 mi WNW 9.2 mph 19.6 mph N/A   Clear
11:53 PM 1.0 °F -15.8 °F -9.9 °F 60% 30.04 in 10.0 mi WNW 11.5 mph - N/A   Clear